QPF
0.00 0.00 0.00 0.00 0.00 0.00 0.00 0.00 0.00 0.00 0.00 0.00 0.00 0.00 0.00 0.00 0.00 0.00 0.00 0.00 0.00 0.00 0.00 0.00 0.01 0.01 0.02 0.02 0.03 0.02 0.02 0.02 0.03 0.04 0.04 0.05 0.05 0.05 0.05 0.04 0.05 0.06 0.07 0.08
0.00 0.00 0.00 0.00 0.00 0.00 0.00 0.00 0.00 0.00 0.00 0.00 0.00 0.00 0.00 0.00 0.00 0.00 0.00 0.00 0.00 0.00 0.00 0.01 0.01 0.01 0.01 0.02 0.02 0.02 0.03 0.05 0.06 0.06 0.05 0.04 0.04 0.04 0.04 0.05 0.05 0.04 0.05 0.05
0.00 0.00 0.00 0.00 0.00 0.00 0.00 0.00 0.00 0.00 0.00 0.00 0.00 0.00 0.00 0.00 0.00 0.00 0.00 0.00 0.01 0.01 0.01 0.02 0.02 0.02 0.02 0.02 0.01 0.02 0.03 0.05 0.07 0.05 0.04 0.04 0.04 0.04 0.04 0.05 0.05 0.04 0.05 0.06
0.00 0.00 0.00 0.00 0.00 0.00 0.00 0.00 0.00 0.00 0.00 0.00 0.00 0.00 0.01 0.01 0.00 0.01 0.01 0.01 0.01 0.01 0.01 0.01 0.02 0.03 0.03 0.03 0.03 0.03 0.03 0.03 0.03 0.03 0.03 0.04 0.04 0.04 0.04 0.04 0.05 0.07 0.09 0.10
0.00 0.00 0.00 0.00 0.00 0.00 0.00 0.00 0.00 0.00 0.00 0.00 0.00 0.00 0.00 0.01 0.01 0.00 0.00 0.01 0.01 0.02 0.02 0.02 0.02 0.03 0.04 0.04 0.05 0.04 0.03 0.02 0.01 0.01 0.01 0.01 0.02 0.03 0.03 0.03 0.03 0.05 0.06 0.06
0.00 0.00 0.00 0.00 0.00 0.00 0.00 0.01 0.00 0.00 0.00 0.00 0.01 0.01 0.01 0.00 0.00 0.01 0.01 0.01 0.01 0.02 0.02 0.02 0.03 0.03 0.03 0.04 0.03 0.03 0.02 0.01 0.01 0.01 0.01 0.01 0.01 0.02 0.02 0.02 0.01 0.02 0.02 0.02
0.00 0.00 0.00 0.00 0.00 0.00 0.00 0.00 0.00 0.01 0.01 0.01 0.01 0.01 0.01 0.00 0.00 0.01 0.01 0.01 0.01 0.02 0.03 0.03 0.03 0.03 0.03 0.04 0.03 0.03 0.02 0.02 0.02 0.01 0.02 0.03 0.03 0.03 0.03 0.02 0.01 0.01 0.01 0.02
0.00 0.00 0.00 0.00 0.00 0.00 0.00 0.00 0.00 0.01 0.01 0.01 0.01 0.01 0.00 0.00 0.01 0.01 0.01 0.01 0.02 0.02 0.03 0.03 0.03 0.02 0.04 0.05 0.05 0.04 0.03 0.03 0.03 0.03 0.03 0.03 0.03 0.03 0.03 0.03 0.03 0.03 0.03 0.04
0.00 0.00 0.00 0.00 0.00 0.00 0.00 0.00 0.00 0.00 0.01 0.01 0.01 0.01 0.00 0.00 0.00 0.01 0.01 0.01 0.02 0.02 0.03 0.02 0.02 0.02 0.02 0.02 0.02 0.03 0.04 0.03 0.03 0.03 0.03 0.03 0.03 0.04 0.04 0.05 0.06 0.05 0.04 0.03
0.00 0.00 0.00 0.00 0.00 0.00 0.01 0.01 0.00 0.00 0.00 0.00 0.01 0.01 0.01 0.01 0.00 0.00 0.01 0.01 0.01 0.02 0.02 0.02 0.02 0.03 0.03 0.02 0.02 0.02 0.03 0.03 0.03 0.04 0.04 0.04 0.04 0.03 0.04 0.04 0.03 0.03 0.03 0.03
0.01 0.00 0.00 0.00 0.00 0.00 0.00 0.00 0.00 0.01 0.01 0.01 0.01 0.01 0.01 0.01 0.01 0.01 0.01 0.01 0.02 0.02 0.01 0.02 0.02 0.02 0.02 0.02 0.02 0.03 0.03 0.02 0.02 0.03 0.03 0.04 0.04 0.03 0.03 0.03 0.04 0.04 0.03 0.03
0.01 0.00 0.00 0.00 0.00 0.00 0.00 0.00 0.00 0.00 0.00 0.01 0.01 0.01 0.01 0.01 0.01 0.01 0.01 0.01 0.01 0.01 0.02 0.02 0.02 0.02 0.02 0.02 0.02 0.03 0.03 0.03 0.03 0.03 0.03 0.03 0.04 0.04 0.04 0.04 0.04 0.04 0.04 0.05
0.00 0.00 0.01 0.01 0.01 0.00 0.00 0.00 0.01 0.01 0.01 0.01 0.01 0.01 0.01 0.01 0.02 0.01 0.01 0.01 0.01 0.01 0.01 0.01 0.01 0.02 0.02 0.03 0.03 0.02 0.03 0.03 0.04 0.04 0.04 0.03 0.03 0.04 0.04 0.05 0.05 0.04 0.05 0.05
0.00 0.01 0.01 0.01 0.01 0.01 0.01 0.01 0.01 0.01 0.02 0.02 0.02 0.02 0.02 0.02 0.02 0.01 0.01 0.01 0.01 0.01 0.01 0.01 0.01 0.01 0.01 0.02 0.03 0.03 0.03 0.04 0.03 0.04 0.05 0.05 0.06 0.06 0.07 0.06 0.05 0.04 0.03 0.03
0.01 0.01 0.01 0.01 0.00 0.01 0.01 0.02 0.02 0.03 0.03 0.02 0.02 0.02 0.02 0.02 0.02 0.02 0.02 0.01 0.01 0.01 0.01 0.01 0.01 0.01 0.01 0.02 0.04 0.07 0.06 0.06 0.05 0.04 0.05 0.06 0.06 0.07 0.07 0.06 0.04 0.02 0.02 0.02
0.01 0.01 0.01 0.01 0.01 0.02 0.02 0.03 0.03 0.03 0.03 0.03 0.03 0.02 0.02 0.03 0.03 0.03 0.02 0.02 0.02 0.01 0.01 0.01 0.01 0.01 0.01 0.03 0.04 0.05 0.06 0.07 0.05 0.04 0.04 0.05 0.05 0.05 0.04 0.03 0.02 0.02 0.01 0.01
0.03 0.03 0.03 0.03 0.03 0.03 0.03 0.04 0.04 0.04 0.04 0.04 0.03 0.03 0.03 0.04 0.04 0.04 0.03 0.02 0.02 0.02 0.02 0.01 0.01 0.01 0.02 0.03 0.04 0.03 0.03 0.04 0.04 0.03 0.03 0.03 0.03 0.03 0.02 0.02 0.02 0.02 0.01 0.01
0.02 0.03 0.04 0.05 0.04 0.04 0.04 0.05 0.05 0.05 0.06 0.05 0.04 0.04 0.03 0.04 0.04 0.03 0.03 0.03 0.03 0.02 0.02 0.02 0.02 0.02 0.02 0.03 0.02 0.02 0.02 0.03 0.03 0.03 0.02 0.02 0.02 0.02 0.02 0.03 0.03 0.02 0.02 0.02
0.02 0.02 0.03 0.04 0.04 0.03 0.03 0.05 0.05 0.06 0.07 0.06 0.06 0.06 0.04 0.05 0.05 0.04 0.04 0.03 0.04 0.04 0.04 0.02 0.02 0.02 0.02 0.02 0.02 0.02 0.02 0.01 0.01 0.01 0.01 0.02 0.02 0.01 0.02 0.03 0.04 0.04 0.04 0.04
0.04 0.03 0.03 0.03 0.03 0.04 0.04 0.05 0.05 0.06 0.07 0.05 0.05 0.07 0.08 0.08 0.08 0.07 0.06 0.06 0.05 0.04 0.04 0.04 0.02 0.02 0.02 0.01 0.01 0.01 0.01 0.01 0.01 0.01 0.01 0.01 0.01 0.01 0.03 0.04 0.04 0.04 0.04 0.04
0.05 0.04 0.04 0.03 0.04 0.05 0.06 0.06 0.05 0.05 0.05 0.05 0.05 0.06 0.07 0.07 0.07 0.07 0.05 0.04 0.04 0.04 0.04 0.04 0.03 0.02 0.02 0.02 0.01 0.01 0.01 0.01 0.01 0.01 0.01 0.01 0.01 0.02 0.03 0.03 0.04 0.04 0.04 0.04
0.05 0.05 0.04 0.03 0.04 0.05 0.05 0.05 0.05 0.05 0.04 0.04 0.05 0.07 0.06 0.06 0.06 0.05 0.05 0.04 0.03 0.03 0.02 0.03 0.02 0.02 0.02 0.02 0.01 0.01 0.01 0.01 0.01 0.01 0.01 0.02 0.03 0.03 0.03 0.03 0.03 0.03 0.02 0.02
0.03 0.04 0.04 0.04 0.04 0.04 0.04 0.04 0.05 0.06 0.05 0.04 0.03 0.04 0.03 0.03 0.02 0.02 0.03 0.02 0.02 0.02 0.02 0.02 0.02 0.02 0.01 0.01 0.01 0.01 0.01 0.01 0.01 0.01 0.01 0.01 0.01 0.01 0.02 0.02 0.03 0.03 0.03 0.02
0.03 0.04 0.04 0.03 0.03 0.03 0.03 0.03 0.04 0.04 0.04 0.04 0.03 0.02 0.02 0.01 0.01 0.01 0.01 0.02 0.02 0.02 0.02 0.01 0.01 0.01 0.00 0.00 0.00 0.00 0.00 0.00 0.00 0.01 0.01 0.01 0.01 0.01 0.01 0.01 0.02 0.03 0.04 0.04
0.04 0.03 0.03 0.03 0.03 0.03 0.03 0.03 0.03 0.03 0.02 0.02 0.02 0.02 0.01 0.01 0.01 0.00 0.00 0.01 0.01 0.01 0.01 0.01 0.01 0.01 0.01 0.01 0.01 0.01 0.00 0.00 0.00 0.00 0.00 0.00 0.00 0.00 0.01 0.01 0.01 0.01 0.02 0.02
0.06 0.06 0.05 0.04 0.03 0.03 0.03 0.03 0.03 0.02 0.01 0.01 0.01 0.01 0.01 0.01 0.01 0.01 0.01 0.01 0.01 0.01 0.01 0.01 0.01 0.01 0.01 0.01 0.01 0.00 0.00 0.00 0.00 0.00 0.00 0.00 0.00 0.00 0.00 0.00 0.00 0.01 0.01 0.01
0.05 0.06 0.06 0.05 0.03 0.03 0.03 0.03 0.03 0.02 0.01 0.01 0.01 0.01 0.01 0.01 0.01 0.01 0.01 0.01 0.01 0.01 0.01 0.01 0.01 0.01 0.01 0.01 0.00 0.00 0.00 0.00 0.00 0.00 0.00 0.00 0.00 0.00 0.00 0.00 0.00 0.00 0.00 0.01
MSLP
1012.91 1012.89 1012.90 1012.94 1012.99 1013.01 1012.95 1012.78 1012.47 1012.01 1011.44 1010.80 1010.14 1009.55 1009.08 1008.79 1008.68 1008.77 1009.03 1009.41 1009.88 1010.39 1010.90 1011.39 1011.87 1012.33 1012.80 1013.28 1013.78 1014.30 1014.81 1015.29 1015.72 1016.08 1016.35 1016.52 1016.59 1016.59 1016.52 1016.41 1016.26 1016.08 1015.88 1015.65
1013.17 1013.10 1013.04 1012.99 1012.93 1012.85 1012.72 1012.51 1012.20 1011.79 1011.29 1010.74 1010.19 1009.67 1009.24 1008.93 1008.78 1008.77 1008.92 1009.18 1009.54 1009.97 1010.45 1010.97 1011.52 1012.09 1012.70 1013.34 1013.98 1014.62 1015.23 1015.79 1016.26 1016.63 1016.89 1017.04 1017.10 1017.08 1017.00 1016.89 1016.74 1016.57 1016.37 1016.15
1013.45 1013.36 1013.25 1013.15 1013.03 1012.90 1012.73 1012.52 1012.23 1011.88 1011.46 1010.99 1010.49 1010.01 1009.58 1009.23 1008.98 1008.84 1008.83 1008.94 1009.17 1009.51 1009.95 1010.49 1011.11 1011.81 1012.56 1013.35 1014.15 1014.92 1015.63 1016.25 1016.76 1017.14 1017.38 1017.51 1017.54 1017.50 1017.41 1017.28 1017.15 1017.00 1016.83 1016.64
1013.76 1013.66 1013.54 1013.42 1013.28 1013.14 1012.98 1012.78 1012.54 1012.24 1011.89 1011.48 1011.02 1010.55 1010.08 1009.64 1009.27 1008.97 1008.79 1008.74 1008.83 1009.07 1009.47 1010.01 1010.70 1011.50 1012.39 1013.32 1014.26 1015.15 1015.95 1016.63 1017.16 1017.54 1017.77 1017.87 1017.87 1017.80 1017.70 1017.59 1017.47 1017.35 1017.23 1017.10
1014.06 1013.97 1013.87 1013.75 1013.63 1013.50 1013.37 1013.21 1013.02 1012.78 1012.48 1012.11 1011.67 1011.18 1010.65 1010.12 1009.61 1009.16 1008.81 1008.60 1008.56 1008.71 1009.05 1009.60 1010.33 1011.22 1012.21 1013.26 1014.31 1015.29 1016.17 1016.89 1017.45 1017.83 1018.04 1018.12 1018.10 1018.02 1017.92 1017.82 1017.74 1017.67 1017.61 1017.56
1014.33 1014.26 1014.17 1014.08 1013.99 1013.90 1013.81 1013.70 1013.56 1013.36 1013.10 1012.76 1012.32 1011.80 1011.21 1010.59 1009.96 1009.38 1008.89 1008.55 1008.40 1008.47 1008.77 1009.31 1010.07 1011.01 1012.07 1013.20 1014.32 1015.37 1016.29 1017.05 1017.62 1018.00 1018.21 1018.29 1018.28 1018.21 1018.13 1018.07 1018.03 1018.02 1018.04 1018.07
1014.54 1014.48 1014.42 1014.35 1014.29 1014.24 1014.19 1014.12 1014.02 1013.86 1013.62 1013.29 1012.85 1012.30 1011.67 1010.98 1010.27 1009.59 1009.01 1008.59 1008.36 1008.38 1008.65 1009.18 1009.95 1010.91 1012.01 1013.17 1014.33 1015.40 1016.34 1017.12 1017.70 1018.10 1018.34 1018.44 1018.46 1018.44 1018.41 1018.40 1018.43 1018.49 1018.58 1018.68
1014.67 1014.62 1014.56 1014.52 1014.49 1014.47 1014.44 1014.40 1014.32 1014.18 1013.95 1013.62 1013.17 1012.61 1011.95 1011.22 1010.48 1009.77 1009.16 1008.70 1008.45 1008.45 1008.71 1009.23 1009.99 1010.95 1012.04 1013.19 1014.34 1015.41 1016.35 1017.13 1017.73 1018.16 1018.44 1018.60 1018.69 1018.75 1018.80 1018.87 1018.98 1019.11 1019.27 1019.43
1014.72 1014.66 1014.61 1014.57 1014.56 1014.55 1014.53 1014.50 1014.42 1014.27 1014.04 1013.70 1013.24 1012.68 1012.02 1011.31 1010.58 1009.89 1009.29 1008.86 1008.63 1008.65 1008.92 1009.44 1010.18 1011.11 1012.16 1013.27 1014.37 1015.40 1016.32 1017.09 1017.72 1018.19 1018.54 1018.79 1018.99 1019.15 1019.31 1019.48 1019.68 1019.88 1020.09 1020.29
1014.70 1014.63 1014.58 1014.54 1014.52 1014.50 1014.48 1014.42 1014.32 1014.15 1013.90 1013.55 1013.09 1012.53 1011.90 1011.23 1010.55 1009.93 1009.42 1009.05 1008.89 1008.95 1009.25 1009.77 1010.48 1011.36 1012.35 1013.38 1014.41 1015.38 1016.26 1017.02 1017.67 1018.20 1018.64 1019.00 1019.32 1019.61 1019.90 1020.18 1020.47 1020.74 1021.00 1021.21
1014.67 1014.59 1014.52 1014.47 1014.43 1014.39 1014.33 1014.24 1014.09 1013.88 1013.59 1013.21 1012.75 1012.21 1011.63 1011.03 1010.45 1009.93 1009.53 1009.27 1009.20 1009.33 1009.66 1010.18 1010.87 1011.69 1012.59 1013.53 1014.46 1015.35 1016.17 1016.92 1017.59 1018.17 1018.70 1019.19 1019.64 1020.07 1020.49 1020.89 1021.27 1021.60 1021.88 1022.10
1014.68 1014.58 1014.50 1014.43 1014.35 1014.27 1014.16 1014.01 1013.80 1013.53 1013.20 1012.79 1012.33 1011.82 1011.29 1010.77 1010.30 1009.92 1009.64 1009.52 1009.55 1009.76 1010.14 1010.66 1011.31 1012.06 1012.86 1013.69 1014.52 1015.32 1016.08 1016.80 1017.47 1018.11 1018.73 1019.32 1019.90 1020.47 1021.01 1021.51 1021.96 1022.34 1022.64 1022.84
1014.76 1014.64 1014.54 1014.44 1014.32 1014.18 1014.01 1013.79 1013.52 1013.19 1012.80 1012.37 1011.91 1011.43 1010.97 1010.55 1010.20 1009.94 1009.81 1009.81 1009.96 1010.24 1010.66 1011.18 1011.79 1012.46 1013.17 1013.89 1014.60 1015.31 1016.00 1016.68 1017.35 1018.03 1018.71 1019.40 1020.08 1020.76 1021.39 1021.98 1022.48 1022.90 1023.19 1023.37
1014.90 1014.77 1014.64 1014.50 1014.34 1014.14 1013.90 1013.62 1013.28 1012.90 1012.47 1012.02 1011.57 1011.13 1010.74 1010.41 1010.18 1010.05 1010.05 1010.17 1010.42 1010.78 1011.23 1011.75 1012.32 1012.91 1013.53 1014.13 1014.74 1015.35 1015.97 1016.60 1017.26 1017.95 1018.67 1019.42 1020.18 1020.92 1021.63 1022.26 1022.80 1023.22 1023.51 1023.66
1015.09 1014.93 1014.77 1014.59 1014.37 1014.12 1013.83 1013.48 1013.10 1012.67 1012.23 1011.78 1011.35 1010.97 1010.65 1010.42 1010.30 1010.29 1010.41 1010.63 1010.97 1011.38 1011.85 1012.36 1012.89 1013.42 1013.94 1014.46 1014.97 1015.49 1016.03 1016.61 1017.24 1017.92 1018.65 1019.43 1020.21 1020.99 1021.72 1022.37 1022.92 1023.33 1023.60 1023.73
1015.25 1015.07 1014.86 1014.64 1014.38 1014.08 1013.73 1013.35 1012.94 1012.51 1012.07 1011.65 1011.26 1010.94 1010.71 1010.58 1010.57 1010.67 1010.88 1011.19 1011.59 1012.04 1012.53 1013.02 1013.51 1013.98 1014.43 1014.86 1015.29 1015.73 1016.21 1016.73 1017.32 1017.97 1018.69 1019.45 1020.23 1021.00 1021.72 1022.35 1022.88 1023.27 1023.51 1023.62
1015.33 1015.11 1014.86 1014.59 1014.29 1013.96 1013.60 1013.20 1012.80 1012.38 1011.98 1011.61 1011.30 1011.07 1010.93 1010.89 1010.98 1011.17 1011.46 1011.84 1012.28 1012.76 1013.24 1013.72 1014.17 1014.59 1014.98 1015.34 1015.70 1016.08 1016.50 1016.97 1017.51 1018.12 1018.79 1019.51 1020.25 1020.98 1021.65 1022.25 1022.73 1023.09 1023.30 1023.39
1015.29 1015.03 1014.74 1014.43 1014.10 1013.76 1013.39 1013.02 1012.65 1012.29 1011.96 1011.67 1011.45 1011.32 1011.27 1011.33 1011.50 1011.77 1012.12 1012.54 1013.01 1013.49 1013.97 1014.43 1014.84 1015.22 1015.56 1015.87 1016.18 1016.51 1016.87 1017.29 1017.78 1018.34 1018.96 1019.62 1020.29 1020.95 1021.57 1022.10 1022.53 1022.84 1023.03 1023.10
1015.13 1014.82 1014.50 1014.17 1013.83 1013.50 1013.16 1012.84 1012.53 1012.25 1012.01 1011.83 1011.71 1011.67 1011.73 1011.87 1012.11 1012.43 1012.82 1013.27 1013.74 1014.21 1014.67 1015.09 1015.47 1015.81 1016.12 1016.39 1016.67 1016.96 1017.28 1017.66 1018.09 1018.59 1019.15 1019.73 1020.33 1020.92 1021.45 1021.92 1022.29 1022.55 1022.71 1022.78
1014.91 1014.57 1014.22 1013.89 1013.56 1013.25 1012.97 1012.71 1012.49 1012.31 1012.17 1012.09 1012.07 1012.13 1012.27 1012.48 1012.77 1013.12 1013.53 1013.97 1014.42 1014.87 1015.29 1015.68 1016.03 1016.33 1016.60 1016.85 1017.10 1017.36 1017.65 1017.99 1018.38 1018.82 1019.30 1019.82 1020.34 1020.84 1021.30 1021.69 1022.01 1022.24 1022.38 1022.44
1014.70 1014.34 1014.00 1013.68 1013.38 1013.12 1012.91 1012.73 1012.59 1012.50 1012.46 1012.48 1012.55 1012.69 1012.89 1013.14 1013.45 1013.81 1014.21 1014.62 1015.03 1015.44 1015.82 1016.16 1016.47 1016.75 1016.99 1017.21 1017.44 1017.67 1017.93 1018.23 1018.58 1018.96 1019.38 1019.82 1020.27 1020.70 1021.09 1021.42 1021.69 1021.89 1022.02 1022.09
1014.59 1014.24 1013.92 1013.64 1013.39 1013.19 1013.04 1012.94 1012.89 1012.88 1012.92 1013.01 1013.15 1013.33 1013.56 1013.83 1014.14 1014.48 1014.84 1015.20 1015.57 1015.92 1016.24 1016.54 1016.81 1017.04 1017.26 1017.45 1017.65 1017.86 1018.10 1018.36 1018.66 1018.99 1019.35 1019.73 1020.10 1020.47 1020.80 1021.09 1021.32 1021.50 1021.62 1021.70
1014.65 1014.34 1014.06 1013.82 1013.64 1013.50 1013.42 1013.39 1013.40 1013.46 1013.55 1013.68 1013.85 1014.05 1014.28 1014.54 1014.82 1015.12 1015.42 1015.73 1016.03 1016.31 1016.58 1016.82 1017.04 1017.24 1017.42 1017.59 1017.76 1017.95 1018.15 1018.37 1018.63 1018.91 1019.21 1019.53 1019.85 1020.16 1020.44 1020.69 1020.90 1021.07 1021.20 1021.30
1014.90 1014.63 1014.41 1014.24 1014.12 1014.04 1014.02 1014.04 1014.09 1014.18 1014.31 1014.45 1014.62 1014.81 1015.02 1015.24 1015.48 1015.72 1015.96 1016.20 1016.43 1016.65 1016.86 1017.05 1017.22 1017.37 1017.52 1017.66 1017.80 1017.95 1018.12 1018.30 1018.51 1018.75 1019.00 1019.26 1019.53 1019.80 1020.04 1020.27 1020.47 1020.64 1020.77 1020.88
1015.30 1015.10 1014.94 1014.83 1014.77 1014.75 1014.76 1014.81 1014.89 1015.00 1015.12 1015.26 1015.41 1015.57 1015.74 1015.92 1016.09 1016.28 1016.45 1016.63 1016.80 1016.96 1017.11 1017.25 1017.38 1017.49 1017.60 1017.71 1017.81 1017.93 1018.06 1018.21 1018.37 1018.56 1018.77 1018.99 1019.21 1019.44 1019.66 1019.87 1020.05 1020.22 1020.36 1020.49
1015.79 1015.66 1015.56 1015.51 1015.49 1015.50 1015.55 1015.62 1015.70 1015.80 1015.91 1016.03 1016.16 1016.28 1016.41 1016.54 1016.66 1016.79 1016.92 1017.04 1017.16 1017.27 1017.38 1017.47 1017.56 1017.64 1017.71 1017.79 1017.86 1017.94 1018.04 1018.15 1018.27 1018.42 1018.58 1018.76 1018.95 1019.15 1019.34 1019.53 1019.71 1019.87 1020.02 1020.15
1016.29 1016.21 1016.17 1016.16 1016.18 1016.22 1016.28 1016.35 1016.43 1016.52 1016.61 1016.71 1016.80 1016.90 1017.00 1017.09 1017.18 1017.27 1017.36 1017.45 1017.53 1017.60 1017.68 1017.74 1017.79 1017.84 1017.89 1017.93 1017.98 1018.03 1018.09 1018.17 1018.26 1018.38 1018.50 1018.65 1018.81 1018.98 1019.15 1019.32 1019.48 1019.64 1019.78 1019.91
Thickness
5777 5784 5786 5784 5783 5783 5781 5787 5784 5789 5792 5799 5802 5802 5802 5801 5798 5795 5791 5788 5785 5781 5777 5774 5770 5767 5764 5761 5758 5755 5751 5747 5744 5742 5740 5738 5735 5732 5730 5728 5727 5724 5723 5721
5762 5773 5776 5775 5782 5782 5782 5786 5787 5789 5790 5803 5804 5803 5798 5797 5794 5791 5788 5786 5784 5780 5776 5772 5768 5765 5762 5758 5755 5752 5747 5743 5741 5739 5736 5733 5731 5728 5724 5722 5720 5719 5716 5715
5754 5764 5763 5758 5775 5779 5780 5785 5786 5783 5789 5797 5793 5792 5792 5793 5792 5790 5788 5785 5782 5779 5776 5772 5769 5766 5761 5757 5753 5748 5744 5740 5737 5735 5731 5728 5726 5723 5719 5716 5714 5712 5710 5708
5753 5746 5733 5766 5784 5784 5780 5781 5786 5786 5789 5791 5789 5789 5792 5793 5791 5788 5787 5784 5781 5778 5775 5772 5769 5764 5760 5755 5750 5745 5741 5737 5733 5730 5727 5723 5720 5716 5713 5710 5707 5704 5702 5700
5744 5739 5747 5758 5770 5775 5771 5771 5781 5781 5782 5785 5785 5785 5784 5787 5788 5786 5785 5782 5780 5778 5774 5770 5765 5761 5755 5751 5746 5741 5736 5732 5729 5726 5721 5717 5713 5710 5707 5703 5700 5697 5695 5691
5736 5732 5734 5755 5769 5774 5769 5759 5774 5776 5775 5777 5777 5774 5774 5779 5780 5779 5779 5778 5775 5773 5769 5763 5760 5756 5750 5746 5741 5736 5732 5728 5724 5720 5716 5712 5707 5704 5700 5697 5693 5690 5686 5683
5728 5730 5744 5754 5763 5763 5744 5749 5764 5768 5768 5769 5768 5768 5769 5771 5769 5770 5769 5769 5768 5764 5760 5756 5754 5751 5744 5740 5734 5730 5726 5722 5718 5713 5709 5705 5701 5697 5693 5690 5685 5681 5677 5673
5724 5722 5729 5743 5751 5747 5744 5751 5756 5758 5760 5760 5759 5760 5761 5760 5758 5759 5758 5758 5757 5754 5751 5748 5746 5743 5737 5731 5727 5723 5719 5715 5710 5706 5703 5699 5694 5689 5685 5681 5677 5672 5668 5663
5721 5722 5724 5733 5736 5739 5742 5742 5746 5749 5751 5752 5750 5750 5750 5749 5748 5748 5748 5747 5747 5744 5741 5738 5737 5734 5728 5724 5720 5715 5710 5706 5701 5697 5693 5690 5686 5681 5677 5674 5671 5666 5661 5656
5706 5712 5718 5724 5728 5730 5733 5734 5739 5742 5743 5744 5742 5741 5740 5739 5737 5736 5736 5736 5736 5734 5730 5727 5726 5724 5721 5716 5712 5707 5702 5697 5693 5688 5684 5680 5677 5674 5670 5667 5663 5659 5654 5648
5693 5701 5707 5712 5715 5719 5722 5726 5729 5732 5734 5734 5734 5732 5731 5728 5727 5726 5725 5725 5726 5724 5720 5718 5716 5713 5711 5707 5704 5699 5694 5689 5684 5680 5675 5669 5664 5659 5657 5653 5651 5649 5645 5641
5688 5693 5696 5698 5705 5709 5711 5714 5717 5720 5721 5724 5724 5722 5721 5719 5718 5716 5715 5715 5715 5713 5710 5707 5706 5703 5700 5698 5695 5690 5685 5680 5676 5671 5665 5660 5654 5646 5638 5637 5634 5632 5629 5627
5681 5687 5689 5691 5695 5698 5700 5703 5706 5708 5709 5710 5712 5712 5711 5708 5707 5706 5704 5704 5703 5702 5700 5697 5695 5692 5690 5688 5685 5682 5677 5672 5668 5662 5657 5652 5647 5640 5632 5623 5619 5617 5614 5611
5672 5674 5676 5681 5684 5688 5690 5692 5695 5696 5698 5699 5699 5699 5698 5696 5695 5694 5693 5692 5692 5691 5689 5686 5684 5681 5679 5677 5674 5671 5667 5661 5657 5653 5649 5644 5638 5632 5626 5621 5615 5607 5600 5596
5662 5667 5670 5673 5675 5677 5679 5681 5682 5682 5683 5684 5685 5686 5685 5684 5682 5681 5681 5681 5680 5678 5676 5674 5671 5668 5667 5665 5662 5658 5655 5651 5647 5642 5638 5633 5627 5622 5617 5613 5607 5601 5594 5586
5653 5658 5661 5662 5663 5666 5668 5669 5670 5670 5671 5671 5672 5672 5673 5672 5670 5669 5668 5668 5667 5665 5663 5661 5659 5656 5655 5653 5649 5646 5642 5638 5635 5632 5627 5622 5618 5614 5609 5604 5599 5594 5589 5584
5641 5644 5648 5651 5654 5655 5657 5658 5659 5659 5660 5660 5660 5660 5660 5659 5658 5657 5656 5656 5655 5653 5651 5649 5646 5645 5643 5641 5639 5636 5632 5627 5623 5621 5618 5614 5609 5605 5600 5596 5592 5587 5583 5577
5636 5639 5642 5644 5645 5645 5646 5647 5648 5647 5648 5648 5649 5649 5648 5647 5646 5645 5644 5643 5642 5640 5638 5637 5635 5634 5632 5630 5629 5627 5623 5618 5615 5612 5608 5604 5600 5597 5593 5589 5586 5581 5576 5569
5629 5631 5633 5635 5636 5636 5637 5637 5637 5637 5636 5637 5637 5636 5636 5636 5635 5634 5634 5633 5631 5628 5626 5625 5621 5623 5621 5618 5616 5614 5612 5609 5605 5602 5598 5592 5591 5589 5587 5583 5579 5574 5569 5564
5621 5623 5624 5625 5626 5627 5627 5627 5626 5626 5626 5626 5626 5625 5624 5624 5625 5624 5623 5622 5620 5618 5616 5613 5613 5612 5610 5607 5605 5605 5602 5600 5597 5594 5591 5588 5585 5582 5579 5575 5571 5567 5562 5559
5612 5613 5613 5614 5615 5616 5616 5616 5616 5616 5615 5615 5616 5615 5615 5615 5615 5615 5614 5611 5607 5606 5605 5602 5604 5602 5600 5597 5596 5597 5594 5592 5589 5586 5584 5581 5578 5574 5571 5567 5564 5560 5557 5553
5602 5603 5604 5605 5605 5605 5606 5607 5607 5607 5607 5607 5607 5607 5606 5605 5606 5605 5603 5601 5599 5596 5598 5597 5596 5592 5590 5589 5590 5589 5587 5584 5582 5579 5577 5573 5570 5567 5564 5560 5557 5554 5551 5547
5594 5595 5596 5597 5597 5596 5597 5598 5598 5599 5599 5599 5599 5599 5599 5598 5599 5598 5595 5593 5592 5589 5591 5588 5583 5581 5580 5582 5583 5582 5580 5577 5575 5573 5570 5567 5564 5561 5558 5555 5552 5548 5545 5541
5586 5588 5589 5590 5591 5590 5590 5590 5591 5591 5591 5591 5591 5591 5592 5591 5590 5590 5587 5582 5582 5581 5581 5575 5573 5573 5572 5577 5576 5575 5572 5570 5568 5567 5564 5562 5559 5556 5553 5550 5547 5543 5540 5536
5580 5581 5582 5582 5583 5583 5583 5584 5584 5584 5585 5584 5584 5584 5585 5585 5584 5581 5579 5575 5572 5573 5572 5567 5566 5566 5569 5570 5569 5567 5565 5563 5563 5561 5558 5555 5553 5551 5548 5545 5542 5538 5535 5532
5575 5576 5576 5577 5577 5578 5580 5581 5580 5580 5580 5579 5578 5578 5577 5576 5574 5573 5571 5569 5568 5566 5567 5565 5563 5562 5565 5564 5562 5561 5559 5556 5555 5552 5551 5550 5547 5545 5542 5540 5536 5534 5531 5527
5571 5572 5572 5573 5574 5575 5576 5576 5575 5574 5574 5573 5572 5571 5571 5570 5569 5568 5566 5565 5564 5563 5562 5562 5561 5560 5559 5558 5556 5555 5553 5552 5550 5548 5547 5544 5541 5539 5537 5533 5531 5528 5525 5523